Home   Weather   Vieux Fort   Past weeks
Flag for Saint Lucia

Past Weather in Vieux Fort, Saint Lucia — Yesterday and Last 2 Weeks

Now
81 °F

Broken clouds.


Feels Like: 85 °F
Forecast: N/A
Wind: 17 mph from East

Location: Hewanorra International Airport

Current Time: Mar 25, 2019 at 6:58:44 pm

Latest Report: Mar 25, 2019 at 6:00 pm


Visibility: N/A

Pressure: 29.95 "Hg

Humidity: 74%

Dew Point: 72 °F

Location of Vieux FortLocation

Past Weather in Vieux Fort — Graph

°F

Vieux Fort Temperature Yesterday

Maximum temperature yesterday: 84 °F (at 11:00 am)
Minimum temperature yesterday: 75 °F (at 8:00 pm)
Average temperature yesterday: 80 °F

High & Low Weather Summary for the Past Weeks

 TemperatureHumidityPressure
High86 °F (Mar 16, 1:00 pm)100% (Mar 11, 9:00 pm)30.07 "Hg (Mar 11, 9:00 pm)
Low72 °F (Mar 11, 9:00 pm)43% (Mar 20, 11:00 am)29.92 "Hg (Mar 11, 4:00 pm)
Average80 °F73%29.98 "Hg
* Reported Mar 10 6:00 pm — Mar 25 6:00 pm, Vieux Fort. Weather by CustomWeather, © 2019

Note: Actual official high and low records may vary slightly from our data, if they occured in-between our weather recording intervals... More about our weather records

Advertising

Vieux Fort Weather History for the Previous 24 Hours

Scroll right to see more
 ConditionsComfort  
Time TempWeatherWind HumidityBarometerVisibility
6:00 pm
Mon, Mar 25
81 °FBroken clouds.17 mph74%29.95 "HgN/A
5:00 pm82 °FPartly sunny.17 mph70%29.95 "HgN/A
4:00 pm82 °FPartly sunny.20 mph66%29.95 "HgN/A
3:00 pm82 °FPartly sunny.21 mph62%29.95 "HgN/A
1:00 pm82 °FPartly sunny.25 mph66%29.98 "HgN/A
12:00 pm82 °FPartly sunny.37 mph70%30.01 "HgN/A
11:00 am82 °FPartly sunny.22 mph70%30.01 "HgN/A
10:00 am84 °FScattered clouds.23 mph66%30.04 "HgN/A
9:00 am82 °FPartly sunny.21 mph70%30.01 "HgN/A
8:00 am81 °FPartly sunny.17 mph74%30.01 "HgN/A
7:00 am77 °FPartly sunny.15 mph74%29.98 "HgN/A
6:00 am77 °FPartly cloudy.18 mph79%29.98 "HgN/A
5:00 am77 °FPassing clouds.16 mph74%29.98 "HgN/A
4:00 am77 °FScattered showers. Partly cloudy.23 mph79%29.98 "Hg5 mi
3:00 am79 °FPartly cloudy.22 mph74%29.95 "HgN/A
2:00 am79 °FScattered showers. Partly cloudy.23 mph79%29.98 "Hg6 mi
1:00 am79 °FPassing clouds.18 mph79%29.98 "HgN/A
12:00 am79 °FPartly cloudy.18 mph79%30.01 "HgN/A
11:00 pm
Sun, Mar 24
77 °FPartly cloudy.25 mph83%30.04 "HgN/A
10:00 pm77 °FPartly cloudy.25 mph89%30.04 "HgN/A
9:00 pm75 °FScattered showers. Passing clouds.14 mph89%30.04 "HgN/A
8:00 pm75 °FPartly cloudy.17 mph83%30.01 "HgN/A
7:00 pm77 °FPassing clouds.15 mph79%30.01 "HgN/A
6:00 pm79 °FPartly sunny.22 mph84%29.98 "HgN/A
Weather by CustomWeather, © 2019

See weather overview